[[{"header":{"parameterUnit":"m.s-1","parameterCategory":1,"la1":30.2991,"la2":30.254,"lo1":-89.0895,"lo2":-89.0444,"dy":0.0017,"dx":0.0017,"nx":28,"ny":28,"refTime":"2024-06-14T21:00:00:Z","depth":0,"parameterNumber":2,"parameterNumberName":"U-component_of_WINDS"},"data":[0,0,0,0,0,0,0,0,0,0,0,0,0,0,0,0,0,0,0,0,0,0,0,0,0,0,0,0,0,0,0,0,0,0,0,0,0,0,0,0,0,0,0,0,0,0,0,0,0,0,0,0,0,0,0,0,0,0,-3.0513,-3.0513,0,-3.0572,-3.0573,-3.0574,-3.0543,-3.0541,-3.054,-3.0538,-3.0598,-3.0601,-3.0604,0,0,0,0,0,0,0,0,0,0,0,0,0,-3.037,-3.0373,-3.0513,-3.0513,-3.0514,-3.0572,-3.0573,-3.0574,-3.0543,-3.0541,-3.0539,-3.0538,-3.0597,-3.06,-3.0604,0,0,0,0,0,0,0,0,0,0,0,0,0,-3.0431,-3.0374,-3.0513,-3.0506,-3.0506,-3.0572,-3.0573,-3.0574,-3.0544,-3.0541,-3.0539,-3.0537,-3.0595,-3.06,-3.0604,-3.068,0,0,-3.0618,-3.062,0,0,0,0,0,0,0,0,-3.0428,-3.0436,-3.0506,-3.0507,-3.0507,-3.0548,-3.0544,-3.0609,-3.0544,-3.0529,-3.0538,-3.0535,-3.0583,-3.0588,-3.0605,-3.0683,-3.0685,-3.0619,-3.0622,-3.0624,-3.0625,0,0,0,0,0,0,0,-3.0423,-3.0434,-3.0536,-3.0507,-3.0508,-3.0499,-3.0505,-3.0557,-3.0569,-3.053,-3.0528,-3.0536,-3.0582,-3.06,-3.0606,-3.0686,-3.0619,-3.0623,-3.0626,-3.0627,-3.0827,-3.0829,0,0,0,0,0,0,-3.042,-3.043,-3.0534,-3.0538,-3.0461,-3.0504,-3.051,-3.0537,-3.0568,-3.057,-3.0538,-3.0534,-3.0594,-3.06,-3.0608,-3.0697,-3.0624,-3.0628,-3.063,-3.0824,-3.0828,-3.083,0,0,0,0,0,0,-3.0417,-3.0429,-3.0532,-3.0484,-3.0496,-3.0509,-3.0539,-3.0539,-3.0557,-3.0574,-3.0575,-3.0554,-3.0592,-3.0601,-3.0662,-3.0698,-3.063,-3.0634,-3.0821,-3.0825,-3.0829,-3.0876,0,0,0,0,0,0,-3.0413,-3.0429,-3.0458,-3.0485,-3.0499,-3.0586,-3.0541,-3.0542,-3.0565,-3.0561,-3.0589,-3.0591,-3.0591,-3.0655,-3.0666,-3.0703,-3.0638,-3.0818,-3.0823,-3.0828,-3.0871,-3.0881,-3.0889,0,0,0,0,0,-3.0408,-3.0469,-3.046,-3.0472,-3.0536,-3.0588,-3.0596,-3.0595,-3.0568,-3.0597,-3.0608,-3.0591,-3.0693,-3.0662,-3.0674,-3.0713,-3.0816,-3.0822,-3.0827,-3.0867,-3.0879,-3.0889,0,0,0,0,0,0,-3.0446,-3.0472,-3.0462,-3.0534,-3.0559,-3.0583,-3.062,-3.0608,-3.064,-3.0635,-3.0631,-3.0638,-3.07,-3.0713,-3.0678,-3.0787,-3.075,-3.0759,-3.0776,-3.0787,-3.0796,-3.0791,-3.0641,0,0,0,0,0,-3.0463,-3.0504,-3.0524,-3.0586,-3.0599,-3.0607,-3.063,-3.0626,-3.0652,-3.0662,-3.0677,-3.0702,-3.074,-3.0764,-3.08,-3.0873,-3.0878,-3.0906,-3.0915,-3.0922,-3.0929,-3.0967,-3.0979,-3.0849,-3.0849,-3.0849,0,0,-3.0498,-3.0518,-3.0544,-3.0594,-3.0613,-3.0654,-3.0616,-3.0662,-3.0692,-3.0669,-3.0727,-3.0739,-3.0766,-3.0833,-3.0863,-3.0845,-3.0966,-3.0929,-3.0935,-3.0938,-3.0974,-3.0986,-3.0997,-3.0853,-3.0852,-3.0852,0,0,-3.0583,-3.0603,-3.0655,-3.0674,-3.0704,-3.0709,-3.0721,-3.0747,-3.0754,-3.0812,-3.0795,-3.083,-3.0896,-3.0915,-3.0934,-3.1025,-3.1009,-3.1037,-3.1083,-3.112,-3.113,-3.1139,-3.1169,-3.1181,-3.1044,-3.1044,-3.1044,0,-3.0623,-3.0685,-3.0683,-3.073,-3.0751,-3.0733,-3.0785,-3.0804,-3.0843,-3.0858,-3.0838,-3.0918,-3.0936,-3.1005,-3.1027,-3.1044,-3.1057,-3.1033,-3.1129,-3.1138,-3.1146,-3.1175,-3.1187,-3.1047,-3.1046,-3.1046,-3.1046,0,-3.0731,-3.0775,-3.0813,-3.0851,-3.0878,-3.0927,-3.0931,-3.0958,-3.0952,-3.0959,-3.1017,-3.1037,-3.1076,-3.1092,-3.1087,-3.1161,-3.1149,-3.1129,-3.1092,-3.1161,-3.1188,-3.12,-3.1051,-3.105,-3.1049,-3.1048,0,0,-3.0842,-3.0878,-3.0892,-3.0908,-3.0938,-3.0971,-3.1019,-3.1057,-3.1079,-3.1106,-3.1145,-3.12,-3.1181,-3.1203,-3.12,-3.1232,-3.13,-3.1208,-3.1208,-3.1223,-3.1381,-3.1394,-3.1407,-3.1291,-3.1293,-3.1295,-3.1378,0,-3.0927,-3.1011,-3.101,-3.1087,-3.1126,-3.1108,-3.1149,-3.1172,-3.1179,-3.1212,-3.1221,-3.1259,-3.1232,-3.1245,-3.1276,-3.1285,-3.1332,-3.128,-3.1325,-3.1327,-3.1317,-3.1422,-3.1437,-3.1514,-3.1388,-3.139,-3.1392,0,-3.1038,-3.1069,-3.115,-3.1173,-3.1189,-3.1226,-3.126,-3.1292,-3.1317,-3.132,-3.1343,-3.1335,-3.1382,-3.1344,-3.1408,-3.1373,-3.1391,-3.1399,-3.1402,-3.1404,-3.1362,-3.1426,-3.1539,-3.155,-3.1409,-3.1407,-3.1406,0,-3.1108,-3.117,-3.1226,-3.1241,-3.127,-3.1296,-3.1309,-3.1331,-3.1353,-3.1383,-3.1396,-3.1431,-3.145,-3.1476,-3.1477,-3.145,-3.154,-3.1504,-3.1543,-3.1543,-3.1562,-3.156,-3.1677,-3.1577,-3.1576,-3.1576,-3.1576,0,-3.1203,-3.1253,-3.1257,-3.1292,-3.1346,-3.1344,-3.1398,-3.1408,-3.1428,-3.1463,-3.1451,-3.1484,-3.1483,-3.1516,-3.1517,-3.1569,-3.1578,-3.158,-3.158,-3.1581,-3.158,-3.1592,-3.1586,-3.1579,-3.1579,-3.1578,-3.1577,0,-3.129,-3.1296,-3.1355,-3.1377,-3.1384,-3.1423,-3.1441,-3.1473,-3.1479,-3.1524,-3.1534,-3.1543,-3.1581,-3.1585,-3.163,-3.163,-3.1692,-3.1686,-3.1684,-3.1682,-3.172,-3.1716,-3.1848,-3.1864,-3.1754,-3.1755,-3.1756,0,-3.135,-3.1387,-3.1413,-3.1436,-3.145,-3.1487,-3.1509,-3.1508,-3.1532,-3.1562,-3.159,-3.1627,-3.1656,-3.1718,-3.1729,-3.1762,-3.1756,-3.18,-3.1761,-3.176,-3.1755,-3.1752,-3.1755,-3.1807,-3.1808,-3.1809,-3.181,0,-3.1454,-3.1454,-3.1487,-3.1521,-3.1547,-3.1574,-3.1599,-3.1618,-3.1619,-3.1647,-3.1685,-3.1708,-3.1753,-3.179,-3.1823,-3.1835,-3.1823,-3.1823,-3.1833,-3.1834,-3.183,-3.183,-3.1702,-3.1819,-3.1818,-3.1818,-3.1817,-3.1817,-3.1528,-3.1559,-3.1582,-3.1619,-3.1637,-3.166,-3.169,-3.17,-3.1732,-3.1769,-3.1766,-3.1809,-3.1831,-3.1874,-3.1889,-3.1921,-3.1906,-3.1922,-3.1926,-3.1929,-3.1932,-3.1826,-3.1928,-3.1927,-3.1927,-3.1927,-3.1927,0,-3.1629,-3.1643,-3.1677,-3.1711,-3.1739,-3.1726,-3.1752,-3.1776,-3.1814,-3.1835,-3.1864,-3.1908,-3.1943,-3.1956,-3.199,-3.2013,-3.2008,-3.2022,-3.2019,-3.2022,-3.1945,-3.1931,-3.2025,-3.2025,-3.2025,-3.2025,-3.2025,-3.2025,-3.1686,-3.1738,-3.1741,-3.1802,-3.1815,-3.1856,-3.1872,-3.1893,-3.191,-3.1959,-3.1988,-3.1996,-3.2014,-3.2049,-3.208,-3.2082,-3.2095,-3.211,-3.2111,-3.2038,-3.2028,-3.2018,-3.2006,-3.2114,-3.2114,-3.2185,-3.2186,-3.2186]},{"header":{"parameterUnit":"m.s-1","parameterCategory":1,"la1":30.2991,"la2":30.254,"lo1":-89.0895,"lo2":-89.0444,"dy":0.0017,"dx":0.0017,"nx":28,"ny":28,"refTime":"2024-06-14T21:00:00:Z","depth":0,"parameterNumber":3,"parameterNumberName":"V-component_of_WINDS"},"data":[0,0,0,0,0,0,0,0,0,0,0,0,0,0,0,0,0,0,0,0,0,0,0,0,0,0,0,0,0,0,0,0,0,0,0,0,0,0,0,0,0,0,0,0,0,0,0,0,0,0,0,0,0,0,0,0,0,0,3.0551,3.0552,0,3.0614,3.0615,3.0615,3.0576,3.0574,3.0572,3.057,3.0632,3.0635,3.0638,0,0,0,0,0,0,0,0,0,0,0,0,0,3.0393,3.0396,3.0551,3.0552,3.0553,3.0614,3.0615,3.0616,3.0576,3.0574,3.0572,3.057,3.0631,3.0634,3.0639,0,0,0,0,0,0,0,0,0,0,0,0,0,3.0459,3.0397,3.0551,3.054,3.054,3.0614,3.0615,3.0616,3.0577,3.0574,3.0571,3.0569,3.0629,3.0634,3.0639,3.0725,0,0,3.0654,3.0657,0,0,0,0,0,0,0,0,3.0456,3.0465,3.0541,3.0541,3.0541,3.0584,3.0581,3.0652,3.0577,3.0563,3.057,3.0567,3.0618,3.0624,3.0641,3.0728,3.0731,3.0655,3.0658,3.066,3.0661,0,0,0,0,0,0,0,3.0451,3.0462,3.0576,3.0542,3.0542,3.0531,3.0538,3.0595,3.0605,3.0564,3.0561,3.0569,3.0617,3.0637,3.0643,3.0732,3.0655,3.0659,3.0662,3.0664,3.0892,3.0895,0,0,0,0,0,0,3.0448,3.0459,3.0574,3.0578,3.0491,3.0536,3.0544,3.0573,3.0604,3.0606,3.0572,3.0567,3.063,3.0637,3.0645,3.0747,3.066,3.0665,3.0668,3.0889,3.0893,3.0896,0,0,0,0,0,0,3.0445,3.0458,3.0571,3.0518,3.0531,3.0542,3.0576,3.0576,3.0595,3.061,3.0611,3.059,3.0628,3.0638,3.0706,3.0749,3.0667,3.0672,3.0885,3.089,3.0894,3.0954,0,0,0,0,0,0,3.044,3.0458,3.0491,3.0519,3.0534,3.0633,3.0578,3.0579,3.0604,3.0599,3.0628,3.063,3.0626,3.0698,3.0711,3.0754,3.0675,3.0881,3.0887,3.0893,3.0948,3.096,3.097,0,0,0,0,0,3.0435,3.0505,3.0493,3.0507,3.0577,3.0635,3.0644,3.0639,3.0608,3.0641,3.0651,3.0629,3.0742,3.0706,3.0719,3.0765,3.0879,3.0886,3.0892,3.0943,3.0957,3.097,0,0,0,0,0,0,3.0481,3.0508,3.0496,3.0577,3.0604,3.0628,3.067,3.0655,3.0691,3.0684,3.0676,3.0683,3.0754,3.0766,3.0725,3.085,3.0805,3.0815,3.0839,3.0853,3.0864,3.0859,3.068,0,0,0,0,0,3.0501,3.0548,3.0568,3.0638,3.0652,3.0659,3.0684,3.0679,3.0706,3.0717,3.0732,3.0758,3.08,3.0827,3.0866,3.095,3.0955,3.0988,3.0999,3.1008,3.1016,3.106,3.1075,3.0918,3.0918,3.0918,0,0,3.0542,3.0563,3.0592,3.0648,3.0668,3.0715,3.0669,3.0721,3.0755,3.0725,3.079,3.0802,3.083,3.0907,3.0941,3.0919,3.106,3.1016,3.1023,3.1027,3.1069,3.1084,3.1097,3.0923,3.0922,3.0921,0,0,3.0642,3.0662,3.0722,3.0744,3.0776,3.078,3.0794,3.0821,3.0828,3.0894,3.0872,3.0912,3.0984,3.1005,3.1026,3.1133,3.1113,3.1146,3.1203,3.1246,3.1258,3.1269,3.1307,3.1321,3.1154,3.1155,3.1155,0,3.0688,3.0759,3.0755,3.0809,3.0833,3.0809,3.0869,3.089,3.0932,3.0949,3.0924,3.1014,3.1032,3.1112,3.1139,3.1156,3.1172,3.1142,3.1257,3.1268,3.1278,3.1314,3.1328,3.1158,3.1158,3.1157,3.1157,0,3.0815,3.0865,3.0909,3.0952,3.0982,3.1038,3.1041,3.1071,3.1063,3.107,3.1137,3.1157,3.12,3.1219,3.1211,3.1298,3.1283,3.1258,3.1213,3.1297,3.133,3.1344,3.1164,3.1162,3.1161,3.116,0,0,3.0945,3.0985,3.1001,3.102,3.1054,3.1091,3.1146,3.1189,3.1215,3.1245,3.129,3.1352,3.1329,3.1352,3.1346,3.1384,3.1467,3.1354,3.1355,3.1374,3.1564,3.1582,3.1598,3.1455,3.1457,3.146,3.1561,0,3.1045,3.1143,3.114,3.123,3.1275,3.1253,3.1301,3.1326,3.1333,3.1372,3.1379,3.1423,3.139,3.1403,3.144,3.1449,3.1505,3.1442,3.1496,3.1498,3.1489,3.1615,3.1635,3.173,3.1574,3.1576,3.1578,0,3.1176,3.1211,3.1306,3.1332,3.1351,3.1394,3.1433,3.1471,3.1498,3.1501,3.1527,3.1515,3.157,3.1524,3.1599,3.1556,3.1578,3.1586,3.1589,3.1594,3.1542,3.1622,3.176,3.1774,3.1598,3.1597,3.1595,0,3.126,3.1331,3.1397,3.1414,3.1447,3.1478,3.1492,3.1517,3.1543,3.1577,3.1593,3.1633,3.1654,3.1684,3.1683,3.165,3.1758,3.1713,3.1761,3.1761,3.1784,3.1783,3.1927,3.18,3.18,3.1799,3.1799,0,3.1372,3.143,3.1435,3.1476,3.1541,3.1537,3.16,3.1612,3.1635,3.1676,3.1659,3.1698,3.1694,3.1734,3.1733,3.1794,3.1804,3.1807,3.1806,3.1808,3.1808,3.1822,3.1815,3.1803,3.1802,3.1801,3.1801,0,3.1477,3.1482,3.1553,3.1578,3.1586,3.1632,3.1654,3.1691,3.1697,3.175,3.1762,3.1772,3.1817,3.1819,3.1871,3.187,3.1945,3.1937,3.1936,3.1934,3.1982,3.1977,3.214,3.216,3.2021,3.2022,3.2023,0,3.1547,3.1592,3.1623,3.165,3.1667,3.1711,3.1737,3.1735,3.1763,3.1798,3.1831,3.1875,3.191,3.1983,3.1993,3.2033,3.2025,3.2079,3.2031,3.2032,3.2025,3.2022,3.2026,3.2088,3.209,3.2091,3.2092,0,3.1672,3.1673,3.1712,3.1753,3.1785,3.1817,3.1846,3.1869,3.187,3.1902,3.1949,3.1976,3.2029,3.2072,3.2111,3.2125,3.2109,3.2108,3.2121,3.2123,3.212,3.2122,3.1961,3.2104,3.2102,3.2102,3.2101,3.2101,3.1762,3.18,3.1828,3.1872,3.1894,3.1922,3.1959,3.197,3.2009,3.2053,3.2049,3.21,3.2126,3.2176,3.2193,3.2233,3.2214,3.2233,3.2238,3.2243,3.2248,3.2115,3.224,3.2239,3.2239,3.2239,3.2239,0,3.1885,3.1902,3.1943,3.1985,3.2019,3.2002,3.2034,3.2064,3.2109,3.2135,3.217,3.2223,3.2265,3.228,3.232,3.2349,3.2343,3.236,3.2357,3.2361,3.2262,3.2247,3.2364,3.2364,3.2364,3.2364,3.2364,3.2364,3.1954,3.2018,3.2022,3.2096,3.2112,3.2163,3.2183,3.2208,3.2228,3.2289,3.2324,3.2334,3.2355,3.2397,3.2434,3.2437,3.2452,3.2473,3.2472,3.238,3.2367,3.2355,3.2341,3.2476,3.2476,3.2567,3.2568,3.2569]}]]